星链-5245 (STARLINK-5245 )

导读 | 豆包AI

STARLINK-5245是美国太空探索技术公司(SpaceX)星链(Starlink)项目的卫星,于2022年10月28日发射升空。星链计划旨在构建全球卫星互联网星座,为全球提供高速互联网接入服务。该卫星是星链星座批量发射任务中的一员,入轨后参与低轨卫星通信组网,服务全球用户的网络连接需求。

Basic Information
目录编号:
54168
目录名称:
STARLINK-5245
国际标识:
2022-141M
轨道中心:
EARTH
卫星名称:
星链-5245
卫星全名:
星链-5245 (STARLINK-5245 )
卫星状态:
在轨 (已飞行1280 天)
发射日期:
2022-10-28 UTC
国别 :
美国 (US)
星等 :
--
Orbit Information
数据来源 国际轨道数据 AOE轨道数据
星历时间 2026-04-30T14:33:01+0800
10小时前
查看轨道信息
2026-04-27T03:00:00+0800
3天前
查看轨道信息
半长轴 6917.863km 6917.907km
偏心率 0.0001147 0.0001182
轨道倾角 53.216° 53.216°
近地点辐角 67.100° 71.645°
升交点赤经 132.651° 148.278°
平近点角 293.011° 88.551°
近地点 538.932km 538.952km
远地点 540.52km 540.588km
周期 95.437分钟 95.438分钟
每日圈数 15.088457 15.088313
Detailed Information
固有亮度:
5
最大亮度:
2.5
卫星平台:
Starlink v1.5
覆盖范围:
全球
运营商:
太空探索技术公司
运营商所在国:
美国
制造商(研发单位):
太空探索技术公司
制造商所在国:
美国
使用方式:
暂无
Satellite Introduction
星链(Starlink)计划是由太空探索技术公司(SpaceX)提出的一个巨型低轨卫星互联网星座项目,计划在2019年至2024年间在太空搭建由约1.2万颗卫星组成的“星链”网络,其中1584颗将部署在地球上空550千米处的近地轨道,并从2020年开始工作。该卫星仍在工作。
2D Orbit Map
3D Orbit Map
Orbit Altitude Analysis Chart
Orbit Inclination Analysis Chart
Orbit Comprehensive Analysis Chart
View Comprehensive Chart